This is the latest recevied weather packets stored in our database for station/object N5JXS. If no packets are shown the sender has not sent any weather packets the latest 10 day(s).
| Time | Temp. | Humidity | Pressure | Rain* | Wind** | Luminosity | Snow |
|---|---|---|---|---|---|---|---|
| 1787790024 | 16.67° C | 81% | 1031.7 hPa | 0 mm | - | 14 W/m² | - |
| 1787789720 | 16.67° C | 81% | 1031.3 hPa | 0 mm | - | 26 W/m² | - |
| 1787789414 | 16.67° C | 80% | 1031.3 hPa | 0 mm | - | 43 W/m² | - |
| 1787789109 | 16.67° C | 79% | 1031.3 hPa | 0 mm | - | 26 W/m² | - |
| 1787788808 | 16.67° C | 77% | 1031.2 hPa | 0 mm | - | 19 W/m² | - |
| 1787788501 | 16.67° C | 76% | 1031.3 hPa | 0 mm | - | 18 W/m² | - |
| 1787788201 | 16.67° C | 76% | 1031.1 hPa | 0 mm | - | 18 W/m² | - |
| 1787787897 | 16.67° C | 73% | 1031 hPa | 0 mm | - | 21 W/m² | - |
| 1787787593 | 16.67° C | 73% | 1031.1 hPa | 0 mm | - | 27 W/m² | - |
| 1787787285 | 16.11° C | 74% | 1031.1 hPa | 0 mm | - | 36 W/m² | - |
| 1787786984 | 15.56° C | 74% | 1031.2 hPa | 0 mm | - | 48 W/m² | - |
| 1787786679 | 15.56° C | 80% | 1031.3 hPa | 0 mm | - | 43 W/m² | - |
| 1787786378 | 15° C | 83% | 1031.4 hPa | 0 mm | - | 30 W/m² | - |
| 1787786075 | 15° C | 85% | 1031.6 hPa | 0 mm | - | 26 W/m² | - |
| 1787785770 | 15° C | 86% | 1031.6 hPa | 0 mm | - | 16 W/m² | - |
| 1787785466 | 15° C | 86% | 1031.6 hPa | 0 mm | - | 10 W/m² | - |
| 1787785165 | 15° C | 89% | 1031.7 hPa | 0 mm | - | 9 W/m² | - |
| 1787784860 | 15.56° C | 91% | 1031.7 hPa | 0 mm | - | 7 W/m² | - |
| 1787784560 | 15.56° C | 92% | 1031.8 hPa | 0 mm | - | 8 W/m² | - |
| 1787784259 | 15.56° C | 92% | 1031.9 hPa | 0 mm | - | 9 W/m² | - |
| 1787783954 | 15.56° C | 91% | 1032.4 hPa | 0 mm | - | 9 W/m² | - |
| 1787783650 | 16.11° C | 91% | 1032.3 hPa | 0 mm | - | 6 W/m² | - |
| 1787783349 | 16.11° C | 90% | 1032.4 hPa | 0 mm | - | 6 W/m² | - |
| 1787783045 | 16.11° C | 88% | 1032.1 hPa | 1.27 mm | - | 7 W/m² | - |
| 1787782744 | 16.67° C | 86% | 1032.3 hPa | 3.05 mm | - | 10 W/m² | - |
* Rain latest hour (hover to see other rain measurements)
** Current wind speed in m/s (hover to see current wind gust speed)